DLH438 ESGG-ESSA

Flight info

Callsign DLH438
Flight time 0h 42m
Altitude 31000
Route LABAN N873 ARS T317 ELTOK
Aircraft A320/M-SDE3FGHIRWY/LB1

Departure

Time 2026-05-06 18:32
Airport Göteborg Landvetter Airport (ESGG)

Arrival

Time 2026-05-06 19:15
Airport Stockholm-Arlanda Airport (ESSA)
Time Latitude Longitude Altitude Speed Heading
2026-05-06 18:01 57.66668 12.29221 517 ft 0 kts 116°
2026-05-06 18:22 57.66669 12.29216 516 ft 3 kts 116°
2026-05-06 18:23 57.66679 12.29171 516 ft 4 kts 107°
2026-05-06 18:23 57.66685 12.29121 516 ft 4 kts 91°
2026-05-06 18:23 57.66682 12.29076 516 ft 4 kts 57°
2026-05-06 18:23 57.66672 12.29057 516 ft 0 kts 26°
2026-05-06 18:26 57.66673 12.29057 516 ft 0 kts 26°
2026-05-06 18:26 57.66699 12.29081 516 ft 8 kts 26°
2026-05-06 18:27 57.66760 12.29126 516 ft 9 kts
2026-05-06 18:27 57.66790 12.29049 516 ft 8 kts 289°
2026-05-06 18:27 57.66836 12.28992 516 ft 8 kts
2026-05-06 18:27 57.66882 12.29039 516 ft 7 kts 26°
2026-05-06 18:28 57.66907 12.29062 516 ft 6 kts 26°
2026-05-06 18:28 57.66947 12.29098 516 ft 9 kts 25°
2026-05-06 18:28 57.67021 12.29166 516 ft 15 kts 27°
2026-05-06 18:28 57.67125 12.29260 516 ft 16 kts 26°
2026-05-06 18:29 57.67204 12.29331 516 ft 11 kts 26°
2026-05-06 18:29 57.67265 12.29387 516 ft 9 kts 26°
2026-05-06 18:29 57.67315 12.29433 516 ft 7 kts 26°
2026-05-06 18:29 57.67356 12.29469 516 ft 6 kts 26°
2026-05-06 18:30 57.67387 12.29489 516 ft 4 kts
2026-05-06 18:30 57.67414 12.29471 516 ft 5 kts 327°
2026-05-06 18:30 57.67435 12.29386 515 ft 9 kts 293°
2026-05-06 18:30 57.67463 12.29257 515 ft 12 kts 277°
2026-05-06 18:31 57.67446 12.29096 515 ft 13 kts 249°
2026-05-06 18:31 57.67401 12.28999 515 ft 0 kts 204°
2026-05-06 18:32 57.67258 12.28868 514 ft 59 kts 206°
2026-05-06 18:32 57.66687 12.28349 512 ft 120 kts 206°
2026-05-06 18:32 57.65797 12.27532 510 ft 166 kts 207°
2026-05-06 18:32 57.64761 12.26575 1112 ft 165 kts 209°
2026-05-06 18:33 57.63728 12.25610 1798 ft 168 kts 209°
2026-05-06 18:33 57.62587 12.24918 2226 ft 185 kts 183°
2026-05-06 18:33 57.61270 12.25480 2506 ft 208 kts 156°
2026-05-06 18:33 57.59902 12.26641 2952 ft 220 kts 156°
2026-05-06 18:34 57.58629 12.27716 3700 ft 218 kts 157°
2026-05-06 18:34 57.57408 12.29347 4511 ft 220 kts 129°
2026-05-06 18:34 57.56813 12.32004 5169 ft 233 kts 98°
2026-05-06 18:34 57.57116 12.35111 5495 ft 260 kts 70°
2026-05-06 18:35 57.57797 12.38277 6087 ft 273 kts 70°
2026-05-06 18:35 57.58522 12.41578 6892 ft 277 kts 69°
2026-05-06 18:35 57.59255 12.44919 7714 ft 281 kts 69°
2026-05-06 18:35 57.59990 12.48312 8530 ft 284 kts 69°
2026-05-06 18:36 57.60729 12.51763 9357 ft 288 kts 69°
2026-05-06 18:36 57.61505 12.55245 10094 ft 294 kts 64°
2026-05-06 18:36 57.62631 12.58444 10778 ft 300 kts 50°
2026-05-06 18:36 57.64195 12.61201 11000 ft 322 kts 34°
2026-05-06 18:37 57.66104 12.63610 11259 ft 342 kts 33°
2026-05-06 18:37 57.68103 12.66119 11860 ft 348 kts 33°
2026-05-06 18:37 57.70117 12.68664 12567 ft 352 kts 33°
2026-05-06 18:37 57.72149 12.71249 13268 ft 355 kts 32°
2026-05-06 18:38 57.74198 12.73898 13931 ft 360 kts 35°
2026-05-06 18:38 57.76016 12.77084 14492 ft 366 kts 44°
2026-05-06 18:38 57.77795 12.80509 15084 ft 370 kts 44°
2026-05-06 18:38 57.79597 12.83994 15660 ft 374 kts 44°
2026-05-06 18:39 57.81419 12.87526 16235 ft 378 kts 44°
2026-05-06 18:39 57.83257 12.91095 16797 ft 383 kts 44°
2026-05-06 18:39 57.85115 12.94715 17352 ft 388 kts 44°
2026-05-06 18:40 57.88897 13.02105 18405 ft 397 kts 44°
2026-05-06 18:40 57.90818 13.05859 18870 ft 401 kts 44°
2026-05-06 18:40 57.92764 13.09672 19326 ft 405 kts 44°
2026-05-06 18:40 57.94727 13.13527 19785 ft 409 kts 44°
2026-05-06 18:41 57.96707 13.17419 20228 ft 414 kts 44°
2026-05-06 18:41 57.98702 13.21343 20657 ft 418 kts 44°
2026-05-06 18:41 58.00719 13.25317 21089 ft 422 kts 44°
2026-05-06 18:41 58.02761 13.29347 21519 ft 426 kts 44°
2026-05-06 18:42 58.04818 13.33418 21951 ft 430 kts 44°
2026-05-06 18:42 58.06885 13.37529 22373 ft 434 kts 44°
2026-05-06 18:42 58.08972 13.41690 22788 ft 438 kts 44°
2026-05-06 18:42 58.11080 13.45889 23186 ft 442 kts 44°
2026-05-06 18:43 58.13204 13.50123 23564 ft 446 kts 44°
2026-05-06 18:43 58.15340 13.54398 23901 ft 449 kts 44°
2026-05-06 18:43 58.17494 13.58713 24242 ft 452 kts 44°
2026-05-06 18:43 58.19668 13.63068 24578 ft 455 kts 44°
2026-05-06 18:44 58.21824 13.67393 24903 ft 458 kts 44°
2026-05-06 18:44 58.24019 13.71809 25206 ft 462 kts 45°
2026-05-06 18:44 58.26232 13.76271 25511 ft 465 kts 45°
2026-05-06 18:44 58.28458 13.80771 25833 ft 469 kts 45°
2026-05-06 18:45 58.30692 13.85299 26145 ft 472 kts 45°
2026-05-06 18:45 58.32944 13.89873 26459 ft 475 kts 45°
2026-05-06 18:45 58.35203 13.94472 26762 ft 478 kts 45°
2026-05-06 18:45 58.37481 13.99110 27065 ft 480 kts 45°
2026-05-06 18:46 58.39771 14.03779 27370 ft 483 kts 45°
2026-05-06 18:46 58.42072 14.08485 27668 ft 486 kts 45°
2026-05-06 18:46 58.44382 14.13221 27963 ft 489 kts 45°
2026-05-06 18:46 58.46713 14.18004 28262 ft 492 kts 46°
2026-05-06 18:47 58.49044 14.22799 28551 ft 495 kts 46°
2026-05-06 18:47 58.51371 14.27602 28827 ft 498 kts 46°
2026-05-06 18:47 58.53730 14.32485 29106 ft 502 kts 46°
2026-05-06 18:47 58.56106 14.37406 29335 ft 505 kts 46°
2026-05-06 18:48 58.58470 14.42311 29584 ft 508 kts 46°
2026-05-06 18:48 58.60904 14.47371 29851 ft 511 kts 46°
2026-05-06 18:48 58.63314 14.52399 30079 ft 513 kts 46°
2026-05-06 18:48 58.65733 14.57463 30303 ft 515 kts 46°
2026-05-06 18:49 58.68123 14.62486 30503 ft 517 kts 46°
2026-05-06 18:49 58.70552 14.67593 30752 ft 518 kts 46°
2026-05-06 18:49 58.72984 14.72707 30922 ft 516 kts 46°
2026-05-06 18:49 58.75371 14.77731 30988 ft 503 kts 46°
2026-05-06 18:50 58.77716 14.82675 30958 ft 499 kts 46°
2026-05-06 18:50 58.82377 14.92537 30961 ft 497 kts 46°
2026-05-06 18:51 58.87024 15.02442 30958 ft 496 kts 46°
2026-05-06 18:51 58.91650 15.12352 30959 ft 497 kts 47°
2026-05-06 18:52 58.96252 15.22236 30965 ft 496 kts 47°
2026-05-06 18:52 59.00870 15.32196 30977 ft 497 kts 47°
2026-05-06 18:53 59.05442 15.42103 30426 ft 487 kts 47°
2026-05-06 18:53 59.07665 15.46925 29892 ft 483 kts 47°
2026-05-06 18:53 59.09902 15.51787 29279 ft 479 kts 46°
2026-05-06 18:53 59.12105 15.56589 28756 ft 473 kts 46°
2026-05-06 18:54 59.14283 15.61358 28253 ft 468 kts 46°
2026-05-06 18:54 59.16422 15.66054 27680 ft 462 kts 46°
2026-05-06 18:54 59.18541 15.70716 27121 ft 456 kts 46°
2026-05-06 18:54 59.20622 15.75295 26564 ft 450 kts 46°
2026-05-06 18:55 59.22689 15.79851 26039 ft 445 kts 46°
2026-05-06 18:55 59.24720 15.84338 25457 ft 440 kts 46°
2026-05-06 18:55 59.26738 15.88804 24939 ft 435 kts 46°
2026-05-06 18:55 59.28724 15.93209 24420 ft 430 kts 46°
2026-05-06 18:56 59.30690 15.97573 23921 ft 425 kts 46°
2026-05-06 18:56 59.32631 16.01895 23396 ft 420 kts 46°
2026-05-06 18:56 59.34548 16.06176 22818 ft 415 kts 47°
2026-05-06 18:56 59.36454 16.10360 22264 ft 409 kts 44°
2026-05-06 18:57 59.38401 16.14284 21746 ft 404 kts 42°
2026-05-06 18:57 59.40409 16.18078 21207 ft 399 kts 40°
2026-05-06 18:57 59.42426 16.21782 20687 ft 394 kts 40°
2026-05-06 18:57 59.44422 16.25436 20178 ft 390 kts 40°
2026-05-06 18:58 59.46386 16.29067 19679 ft 387 kts 40°
2026-05-06 18:58 59.48320 16.32704 19179 ft 383 kts 41°
2026-05-06 18:58 59.50223 16.36333 18699 ft 379 kts 41°
2026-05-06 18:58 59.52102 16.39947 18243 ft 374 kts 41°
2026-05-06 18:59 59.53956 16.43518 17703 ft 370 kts 41°
2026-05-06 18:59 59.55788 16.47053 17177 ft 367 kts 41°
2026-05-06 18:59 59.57602 16.50550 16648 ft 362 kts 42°
2026-05-06 18:59 59.59399 16.54013 16145 ft 359 kts 42°
2026-05-06 19:00 59.61171 16.57435 15666 ft 355 kts 42°
2026-05-06 19:00 59.62927 16.60833 15216 ft 352 kts 42°
2026-05-06 19:00 59.64668 16.64209 14797 ft 350 kts 42°
2026-05-06 19:00 59.65813 16.66430 14603 ft 348 kts 42°
2026-05-06 19:01 59.68112 16.70897 14146 ft 345 kts 43°
2026-05-06 19:01 59.69816 16.74216 13767 ft 344 kts 42°
2026-05-06 19:01 59.71525 16.77553 13336 ft 343 kts 42°
2026-05-06 19:01 59.73214 16.80855 12956 ft 340 kts 42°
2026-05-06 19:02 59.74895 16.84143 12596 ft 338 kts 42°
2026-05-06 19:02 59.76555 16.87404 12213 ft 335 kts 42°
2026-05-06 19:02 59.78207 16.90654 11847 ft 332 kts 42°
2026-05-06 19:02 59.79838 16.93864 11489 ft 329 kts 43°
2026-05-06 19:03 59.81295 16.97351 11176 ft 328 kts 56°
2026-05-06 19:03 59.82298 17.01341 11046 ft 319 kts 69°
2026-05-06 19:03 59.82823 17.05503 10882 ft 312 kts 82°
2026-05-06 19:03 59.83020 17.09760 10576 ft 308 kts 87°
2026-05-06 19:04 59.83127 17.14051 10258 ft 306 kts 87°
2026-05-06 19:04 59.83215 17.18225 9940 ft 304 kts 87°
2026-05-06 19:04 59.83296 17.22411 9590 ft 302 kts 88°
2026-05-06 19:04 59.83374 17.26565 9252 ft 300 kts 88°
2026-05-06 19:05 59.83451 17.30690 8906 ft 297 kts 88°
2026-05-06 19:05 59.83528 17.34781 8544 ft 295 kts 88°
2026-05-06 19:05 59.83602 17.38822 8232 ft 291 kts 88°
2026-05-06 19:05 59.83673 17.42819 7931 ft 288 kts 88°
2026-05-06 19:06 59.83742 17.46781 7644 ft 286 kts 88°
2026-05-06 19:06 59.83810 17.50694 7406 ft 278 kts 88°
2026-05-06 19:06 59.83875 17.54430 7194 ft 265 kts 88°
2026-05-06 19:06 59.83937 17.58067 6881 ft 262 kts 88°
2026-05-06 19:07 59.83998 17.61653 6545 ft 258 kts 88°
2026-05-06 19:07 59.84039 17.64009 6325 ft 254 kts 88°
2026-05-06 19:07 59.84124 17.68674 5772 ft 251 kts 88°
2026-05-06 19:07 59.84191 17.72145 5426 ft 247 kts 88°
2026-05-06 19:08 59.84258 17.75463 5285 ft 234 kts 88°
2026-05-06 19:08 59.84329 17.78647 5002 ft 230 kts 89°
2026-05-06 19:08 59.84419 17.81799 4619 ft 229 kts 88°
2026-05-06 19:08 59.84529 17.84955 4259 ft 228 kts 88°
2026-05-06 19:09 59.84646 17.88036 3936 ft 225 kts 88°
2026-05-06 19:09 59.84770 17.91129 3609 ft 223 kts 88°
2026-05-06 19:09 59.84637 17.94128 3278 ft 215 kts 116°
2026-05-06 19:09 59.83736 17.96362 2942 ft 205 kts 152°
2026-05-06 19:10 59.82461 17.97377 2790 ft 192 kts 166°
2026-05-06 19:10 59.81205 17.98066 2654 ft 183 kts 168°
2026-05-06 19:10 59.79995 17.98683 2558 ft 176 kts 168°
2026-05-06 19:10 59.78822 17.99261 2500 ft 173 kts 168°
2026-05-06 19:11 59.77652 17.99828 2485 ft 172 kts 168°
2026-05-06 19:11 59.76459 18.00104 2418 ft 175 kts 187°
2026-05-06 19:11 59.75262 17.99679 2236 ft 174 kts 189°
2026-05-06 19:11 59.74077 17.99240 2016 ft 170 kts 189°
2026-05-06 19:12 59.72950 17.98825 1800 ft 157 kts 189°
2026-05-06 19:12 59.71929 17.98452 1586 ft 142 kts 189°
2026-05-06 19:12 59.70979 17.98106 1391 ft 137 kts 189°
2026-05-06 19:12 59.70366 17.97882 1262 ft 134 kts 189°
2026-05-06 19:13 59.69142 17.97437 1015 ft 133 kts 188°
2026-05-06 19:13 59.68230 17.97105 829 ft 134 kts 188°
2026-05-06 19:13 59.67313 17.96772 647 ft 134 kts 188°
2026-05-06 19:13 59.66394 17.96436 462 ft 134 kts 187°
2026-05-06 19:14 59.65790 17.96216 335 ft 134 kts 187°
2026-05-06 19:14 59.64873 17.95881 158 ft 133 kts 187°
2026-05-06 19:14 59.64027 17.95595 112 ft 102 kts 189°
2026-05-06 19:14 59.63500 17.95392 122 ft 52 kts 192°
2026-05-06 19:15 59.63258 17.95303 127 ft 30 kts 189°
2026-05-06 19:15 59.63073 17.95211 134 ft 25 kts 204°
2026-05-06 19:15 59.62962 17.95084 136 ft 14 kts 217°
2026-05-06 19:15 59.62882 17.94955 137 ft 15 kts 219°
2026-05-06 19:16 59.62856 17.94784 137 ft 14 kts 303°
2026-05-06 19:16 59.62935 17.94776 136 ft 12 kts 12°
2026-05-06 19:16 59.63022 17.94806 133 ft 13 kts 10°